Regional Weather Roundup
Issued by NWS

Home | Current Version | Previous Version | Graphics & Text | Print | Product List | Glossary On
Versions: 1 2 3 4 5 6 7 8 9 10 11 12 13 14 15 16 17 18 19 20 21 22 23 24 25 26 27 28 29 30 31 32 33 34 35 36 37 38 39 40 41 42 43 44 45 46 47 48 49 50
000
ASUS43 KLOT 280912
RWRIL

ILLINOIS REGIONAL WEATHER ROUNDUP
NATIONAL WEATHER SERVICE CHICAGO/ROMEOVILLE IL
400 AM CDT TUE APR 28 2015

NOTE: "FAIR" INDICATES FEW OR NO CLOUDS BELOW 12,000 FEET WITH NO
SIGNIFICANT WEATHER AND/OR OBSTRUCTIONS TO VISIBILITY.

* THESE STATIONS ARE NOT UNDER NWS QUALITY CONTROL. THEY ALSO MAY NOT
  REPORT WEATHER SUCH AS PRECIPITATION OR FOG.

ILZ001-002-007-009-015-016-024-281000-
NORTHWEST ILLINOIS

CITY           SKY/WX    TMP DP  RH WIND       PRES   REMARKS
MOLINE         CLEAR     42  35  76 CALM      30.13R
STERLING*      CLEAR     39  34  81 E3        30.15S
SAVANNA*       CLEAR     42  36  81 CALM      30.14R
$$

ILZ003-004-008-010-011-017-018-281000-
NORTH CENTRAL ILLINOIS

CITY           SKY/WX    TMP DP  RH WIND       PRES   REMARKS
ROCKFORD       CLEAR     38  34  85 CALM      30.17R
FREEPORT*      CLEAR     33  31  93 CALM      30.16S
ROCHELLE*      CLEAR     32  32  98 CALM      30.15S
DE KALB*       CLEAR     35  32  88 CALM      30.15R
PERU*          CLEAR     40  35  80 N3        30.15S
$$

ILZ005-006-012>014-019>023-281000-
NORTHEAST ILLINOIS

CITY           SKY/WX    TMP DP  RH WIND       PRES   REMARKS
CHICAGO-OHARE  CLEAR     37  33  85 CALM      30.13S
CHICAGO-MIDWAY CLEAR     41  34  76 NW3       30.14S
AURORA         CLEAR     34  29  82 CALM      30.15R
LANSING*       CLEAR     35  32  88 CALM      30.14S
JOLIET*        CLEAR     38  35  89 CALM      30.15R
WAUKEGAN       CLEAR     32  30  92 CALM      30.14R
DUPAGE AIRPORT CLEAR     35  32  88 CALM      30.14R
KANKAKEE*      CLEAR     38  35  89 NW3       30.15R
WHEELING       CLEAR     36  31  82 CALM      30.15F
MORRIS*        CLEAR     36  32  86 CALM      30.11R
ROMEOVILLE*    CLEAR     37  32  81 N3        30.14S
NORTHERLY ISL    N/A     43  34  70 CALM        N/A
$$

LMZ740>746-281000-
SOUTHERN LAKE MICHIGAN

STATION/POSITION SKY/WX   TEMP    WIND        PRES    VSBY  WAVE
                          AIR SEA DIR/SP/G                  HT/PER
                          (F)     (DEG/KT/KT) (MB)    (MI)  (FT/S)
HARRISON CRIB              42     330/  7/  8   N/A
BURNHAM HARBOR             44      CALM  /  5   N/A
CALUMET HARBOR             41     300/  1/  2   N/A
BURNS HARBOR               42     330/  4/  6 1020.7S
MICHIGAN CITY              40     290/  5/  5   N/A
MICHIGAN CITY 6N           40 46  330/  4/  8   N/A           2/ 5
$$

ILZ025>027-034>036-040-047-049-050-058-095>099-281000-
WEST-CENTRAL ILLINOIS

CITY           SKY/WX    TMP DP  RH WIND       PRES   REMARKS
QUINCY         CLEAR     45  35  68 SE5       30.13R
GALESBURG*     CLEAR     39  36  87 SE3       30.14S
MACOMB*        CLEAR     38  36  91 CALM      30.17R
JACKSONVILLE*  CLEAR     42  37  80 CALM      30.14R
PITTSFIELD*    CLEAR     40  37  87 W3        30.14S
$$

ILZ028>032-037-038-041>044-048-051>054-059>061-281000-
CENTRAL ILLINOIS

CITY           SKY/WX    TMP DP  RH WIND       PRES   REMARKS
PONTIAC        CLEAR     37  33  85 N3        30.15R
BLOOMINGTON    CLEAR     38  33  82 NE6       30.15R WCI  33
DECATUR        CLEAR     38  32  79 N6        30.13R WCI  33
PEORIA         CLEAR     40  35  83 CALM      30.15R
LACON*         CLEAR     37  34  88 CALM      30.14S
LINCOLN*       CLEAR     40  36  87 CALM      30.15R
SPRINGFIELD    CLEAR     40  36  86 CALM      30.14R
TAYLORVILLE    CLEAR     37  34  87 N5        30.13R WCI  34
$$

ILZ033-039-045-046-055>057-062-063-281000-
EAST-CENTRAL ILLINOIS

CITY           SKY/WX    TMP DP  RH WIND       PRES   REMARKS
CHAMPAIGN      CLEAR     37  33  85 NE6       30.12R WCI  32
DANVILLE*      CLEAR     35  33  94 N8        30.10R WCI  28
RANTOUL*       CLEAR     39  35  83 NE5       30.14R
MATTOON        CLEAR     35  32  88 N6        30.11R WCI  30
PARIS*         CLEAR     38  35  89 CALM      30.12R
$$

ILZ079-100>102-281000-
SOUTHWEST ILLINOIS

CITY           SKY/WX    TMP DP  RH WIND       PRES   REMARKS
ALTON          CLEAR     44  38  80 N3        30.11S
BELLEVILLE     CLEAR     40  40  99 N3        30.09R
CAHOKIA*       CLEAR     41  39  93 E3        30.10S
SPARTA*        CLEAR     42  38  85 N5        30.09S
$$

ILZ064>066-069>071-074>076-080>082-084>086-088>090-092>094-281000-
SOUTH-CENTRAL ILLINOIS

CITY           SKY/WX    TMP DP  RH WIND       PRES   REMARKS
CARBONDALE     CLEAR     41  36  82 N6        30.07R
CAIRO*         CLEAR     47  40  74 N6        30.04R
EFFINGHAM*     CLEAR     40  33  78 CALM      30.11S
MARION         CLEAR     45  37  76 N3        30.07S
MT. VERNON     CLEAR     41  34  75 N5        30.09S
CENTRALIA*     CLEAR     37  36  94 CALM      30.10R
SALEM*         CLEAR     45  36  72 N5        30.10S
METROPOLIS*    CLEAR     46  40  82 N3        30.03S
$$

ILZ067-068-072-073-078-083-087-091-281000-
SOUTHEAST ILLINOIS

CITY           SKY/WX    TMP DP  RH WIND       PRES   REMARKS
LAWRENCEVILLE  CLEAR     42  37  82 NE6       30.10R
FLORA*         CLEAR     40  37  89 N5        30.10S
FAIRFIELD*     CLEAR     44  37  77 N7        30.08S
HARRISBURG*    CLEAR     45  38  75 N8        30.07S
ROBINSON*      CLEAR     39  36  87 N3        30.11S
CARMI*         CLEAR     43  35  74 N9        30.06F
$$

ABBREVIATIONS USED IN REMARKS
   TC - TEMPERATURE IN CELSIUS
  WCI - WIND CHILL INDEX
   HX - HEAT INDEX
  VSB - VISIBILITY
$$



USA.gov is the U.S. government's official web portal to all federal, state and local government web resources and services.